Weather in Barretos

Brazil     20°33′02″S   48°34′30″W
temp.,
°C
wind,
m/s
gust,
m/s
humid.,
%
clouds,
%
prec.,
mm/h
press.,
hPa
HPBL,
m
21 june, mon
mon2100:00+19s2467100 0.0 1019179
03:00+17s2375100 0.0 101976
06:00+18se2571100 0.0 1019240
09:00+20e346181 0.0 1020391
12:00+28n114097 0.0 10181145
15:00+28nw23362 0.0 10151778
18:00+24w3347100 0.0 101629
21:00+22sw1149100 0.0 101811
22 june, tue
tue2200:00+20se22595 0.0 101822
03:00+18e22675 0.0 101715
06:00+17e11694 0.0 101813
09:00+23e22494 0.0 1019262
12:00+30n013235 0.0 10181132
15:00+31wsw242947 0.0 10152573
18:00+26sw124057 0.0 101513
21:00+25sse4104594 0.0 1017354
23 june, wed
wed2300:00+20se4116258 0.0 1018286
03:00+18se411715 0.0 1018284
06:00+17se49787 0.0 1018216
09:00+22ese47555 0.0 1019369
12:00+30ene343329 0.0 10171336
15:00+32ne112615 0.0 10142619
18:00+26sse11378 0.0 101512
21:00+22se4125035 0.0 1016252
24 june, thu
thu2400:00+20se35573 0.0 101790
03:00+19e24592 0.0 101670
06:00+18ene26670 0.0 1016127
09:00+23ne610525 0.0 1017555
12:00+31nne56315 0.0 10151488
15:00+33nnw34232 0.0 10122907
18:00+26nw113369 0.0 101311
21:00+24nnw113711 0.0 101411
25 june, fri
fri2500:00+21ne364579 0.0 101493
03:00+20ne2353100 0.0 101342
06:00+19nw1157100 0.0 101511
09:00+24ne2543100 0.0 1017353
12:00+30nne3529100 0.0 10151258
15:00+33n22236 0.0 10112472
18:00+26e113313 0.0 101211
21:00+23se224126 0.0 101415